Temp
24 24 24 23 22 23 22 21 20 20 19 19 20 20 20 21 22 22 22 21 21 21
23 24 23 21 21 22 20 20 19 19 19 18 19 19 19 22 20 20 21 22 22 22
23 22 21 21 21 20 20 19 19 19 19 19 18 19 19 20 19 19 20 21 20 20
22 21 21 21 20 20 20 19 19 19 19 18 18 18 18 18 18 18 18 19 19 19
22 22 22 21 20 20 19 19 19 19 19 18 18 18 18 18 18 18 19 19 19 20
22 22 21 20 20 19 19 19 19 19 19 19 18 18 18 18 18 19 19 19 18 18
22 22 21 20 19 19 18 19 19 19 19 19 18 18 18 18 18 18 19 18 18 18
21 20 19 19 18 18 18 18 18 18 18 18 19 20 18 18 18 18 18 18 18 18
20 19 19 18 18 18 18 18 18 18 18 18 20 17 17 17 18 18 18 18 18 17
19 19 19 18 18 18 18 18 18 18 18 19 19 17 16 16 18 18 17 17 18 18
19 19 18 18 18 18 18 18 18 18 18 18 18 16 15 15 17 18 17 17 17 17
20 19 19 18 18 18 18 18 18 18 17 18 18 16 15 16 18 18 17 17 16 16
19 19 19 18 18 18 17 18 18 18 17 17 17 16 15 15 18 19 18 18 17 15
18 18 18 18 17 17 17 18 17 17 17 17 17 16 15 15 16 17 18 19 19 17
Height
816 817 817 818 820 821 822 823 823 823 820 819 820 821 819 818 817 816 816 817 818 817
814 816 817 819 821 822 824 824 823 822 821 820 820 819 818 818 818 817 817 817 817 818
813 815 816 818 819 822 824 825 825 824 824 822 821 820 819 818 818 817 817 816 817 817
813 815 817 819 819 820 822 823 823 823 823 824 822 821 820 819 818 818 818 817 817 816
813 815 817 818 819 821 822 824 824 825 825 823 822 821 820 818 817 817 817 816 815 814
815 817 818 818 820 822 823 824 825 826 826 826 824 823 821 820 818 816 815 815 815 814
815 816 818 819 820 822 822 824 824 825 824 825 824 825 824 822 820 817 815 813 813 814
813 814 816 817 819 820 822 823 825 824 825 825 823 822 824 823 822 820 816 814 812 812
812 812 813 816 819 819 821 823 824 823 824 823 821 823 824 823 822 820 818 814 812 811
810 812 814 817 818 820 821 823 822 822 821 819 821 823 823 823 821 819 817 816 811 810
808 811 815 817 817 818 819 819 820 820 819 818 818 818 820 821 820 818 816 814 812 809
807 809 813 815 816 817 817 817 817 817 816 817 816 816 817 817 815 814 814 811 811 809
807 810 813 813 815 816 815 815 815 814 813 815 814 814 814 815 812 810 811 809 808 806
804 807 810 811 813 813 813 813 813 812 812 813 811 812 812 811 810 809 808 806 804 802
Wind_Speed
6 5 2 3 4 3 3 2 2 0 0 3 3 6 7 6 7 7 7 8 8 8
7 6 5 7 5 3 2 0 1 1 0 0 2 3 3 4 5 7 7 8 8 10
10 9 9 7 7 5 2 1 1 1 0 1 1 1 1 2 3 4 5 6 6 8
11 10 8 7 6 5 4 3 3 3 3 1 1 1 3 3 4 5 5 5 5 6
11 9 7 6 5 3 2 1 2 2 3 3 1 2 3 3 3 3 3 3 3 3
9 7 6 6 4 2 2 1 1 2 2 3 2 3 2 1 0 1 0 2 3 4
9 7 6 5 3 1 1 2 2 3 3 3 2 3 3 3 2 1 1 0 0 2
10 9 7 5 3 3 3 2 4 4 4 3 3 1 2 3 4 5 3 2 1 1
9 9 8 5 4 4 3 3 3 3 5 5 4 2 2 3 4 4 5 5 5 5
10 7 5 4 3 3 3 4 4 5 6 5 6 6 4 4 6 6 5 6 5 6
10 7 5 4 4 4 5 5 5 6 6 6 7 7 8 6 6 6 6 7 5 3
8 7 6 5 4 6 6 5 5 6 5 8 7 8 10 7 7 6 8 6 5 4
9 6 4 5 6 6 6 5 6 4 3 6 7 11 10 7 8 7 8 7 5 4
10 8 8 7 7 7 7 6 7 5 6 6 4 6 7 6 5 7 7 7 5 1
Wind_Direction
192 221 168 108 132 127 131 137 118 13 304 275 304 305 309 303 311 308 310 306 307 300
150 149 121 112 111 100 113 154 90 129 166 89 331 323 309 310 311 308 300 292 285 281
137 135 131 129 119 114 100 70 77 68 273 106 77 39 330 306 316 314 294 288 292 287
142 140 142 142 122 121 130 157 163 168 167 175 124 354 326 309 292 293 284 286 279 278
147 145 133 111 97 83 105 160 178 192 194 178 194 304 301 289 277 280 281 284 281 280
143 136 119 110 90 90 97 90 154 207 224 261 310 319 321 320 271 201 237 329 332 344
147 133 117 106 97 74 114 207 192 217 224 259 321 335 344 349 357 337 311 333 345 2
143 132 121 111 125 160 186 209 241 236 248 252 257 234 323 332 347 344 333 313 312 306
147 140 137 143 158 165 190 213 226 234 248 257 260 233 257 305 312 327 328 318 302 289
157 150 147 156 153 187 207 232 237 250 258 229 235 245 256 289 293 307 325 314 305 292
159 151 162 188 190 205 221 231 253 264 248 250 235 239 252 276 274 291 311 313 302 297
166 164 190 202 216 230 230 236 248 264 250 255 254 259 257 259 276 292 305 304 290 289
172 177 210 233 233 230 235 243 264 245 256 265 264 260 258 265 283 290 306 294 275 281
173 188 211 215 219 221 233 253 249 242 256 261 262 246 265 258 281 296 302 296 286 203